Wind_Speed
14 15 15 15 15 15 16 16 16 17 18 18 18 18 18 18 19 19 19 19 19 19 19 19 20 20 20 21 22 23 23 24 24 25 26 26 27 28 29 30 30 30 31
17 17 18 18 18 19 19 19 20 20 21 21 20 20 20 21 21 21 21 21 21 21 21 21 22 22 22 23 23 24 24 25 26 27 27 28 29 29 30 31 32 33 33
20 20 21 22 22 23 23 23 24 24 24 23 23 23 23 24 24 24 24 24 23 24 24 24 24 24 24 25 26 26 27 27 28 29 30 30 31 31 32 33 34 34 35
23 24 25 26 26 26 27 27 27 27 27 27 27 27 27 27 27 27 27 27 27 27 27 27 27 27 28 29 29 30 30 31 31 32 33 34 35 35 36 36 37 37 37
27 28 28 29 30 30 30 30 31 31 29 29 29 29 30 29 29 29 30 30 29 29 30 30 31 31 32 33 33 34 34 35 36 37 37 37 38 39 39 40 41 42 42
30 31 31 31 32 32 32 33 34 33 32 31 31 32 30 31 31 31 32 32 32 33 33 34 35 36 36 37 37 38 38 40 40 41 41 42 43 43 44 45 46 46 47
32 32 31 32 33 34 34 34 35 34 34 33 32 32 32 32 32 34 34 34 35 35 36 37 38 40 41 41 41 42 43 44 45 46 46 47 48 48 49 49 50 51 51
32 32 31 32 33 31 33 34 33 32 32 32 31 30 31 32 33 35 36 36 37 39 40 41 41 42 43 45 46 47 48 48 49 50 51 52 53 53 54 54 54 55 55
35 34 32 32 32 32 32 30 30 31 31 32 32 32 32 33 34 36 38 39 40 42 43 43 45 46 48 49 50 51 52 53 54 54 55 56 57 58 59 59 59 60 60
35 35 35 33 33 32 32 32 34 34 34 34 34 35 36 37 39 40 40 42 44 45 46 48 50 51 52 54 55 56 56 57 58 59 60 61 62 63 63 64 65 65 65
36 36 36 37 35 34 34 35 36 35 35 36 37 38 40 41 42 43 44 45 46 48 50 51 53 55 57 58 59 59 60 61 62 64 65 66 67 67 67 68 68 68 68
38 38 39 39 37 37 37 37 37 38 39 39 40 41 42 44 44 46 48 50 51 52 54 56 58 60 61 62 63 63 64 66 66 68 69 70 71 71 70 71 71 71 71
38 39 40 40 39 39 40 40 40 40 41 41 42 43 45 47 49 51 52 54 55 57 59 60 63 65 66 66 67 67 69 69 70 71 72 72 73 73 73 73 72 72 72
40 41 41 40 40 41 42 43 43 44 44 45 46 47 49 51 52 54 56 58 60 61 63 64 66 67 68 69 69 69 70 70 71 72 73 73 73 73 73 73 72 71 71
42 42 42 42 43 44 44 46 46 47 48 48 49 51 52 54 56 58 60 62 63 65 66 67 67 68 68 69 68 69 69 70 70 70 70 70 69 69 69 68 68 68 68
43 44 45 46 46 47 47 47 48 49 51 51 53 54 56 57 59 61 63 64 65 66 67 68 68 68 67 67 67 66 66 65 65 65 65 65 64 64 64 64 64 64 64
46 47 46 46 47 47 48 49 50 52 53 53 55 56 58 59 61 62 62 63 63 63 64 64 64 64 63 62 62 61 60 60 59 59 58 58 58 58 58 57 57 57 57
45 45 46 46 46 48 49 50 52 52 54 55 56 57 58 59 59 59 59 59 58 58 57 57 57 56 55 55 54 53 52 51 51 51 50 50 50 51 50 50 49 49 49
44 44 44 45 47 48 49 51 52 53 54 55 56 56 56 56 56 56 55 54 53 52 51 51 50 50 49 48 46 46 45 45 44 44 43 43 43 43 43 43 43 43 43
43 43 44 45 46 47 49 50 52 53 53 54 54 54 54 53 52 51 49 48 47 46 45 44 44 43 42 41 41 40 39 38 38 38 37 37 36 37 37 38 39 39 39
42 42 43 44 45 46 48 49 49 50 51 51 51 50 48 46 45 43 42 41 40 39 38 37 37 37 36 36 35 34 34 33 33 33 33 32 32 33 33 34 34 34 35
40 41 42 43 44 45 46 46 47 47 47 46 44 42 40 39 38 36 34 33 32 32 32 31 31 30 30 30 29 29 29 28 28 29 29 29 29 29 30 30 30 31 32
38 39 40 41 42 42 43 43 42 41 40 39 37 36 34 33 31 29 27 26 25 24 24 24 24 24 24 24 24 25 25 25 25 25 25 25 26 26 26 27 28 29 30
36 37 37 38 39 39 39 38 37 36 35 33 32 31 29 27 25 23 22 21 20 19 18 19 19 19 20 20 21 21 22 22 22 22 22 22 23 24 24 25 25 26 26
33 34 35 35 35 35 34 34 33 32 30 28 27 25 22 21 19 17 16 15 15 15 15 16 16 16 17 17 18 19 19 19 20 20 20 21 21 22 22 23 23 23 23
30 31 31 31 31 31 30 29 28 26 24 22 20 18 17 16 15 14 13 13 14 15 15 15 15 16 16 17 17 17 17 18 18 19 19 19 19 20 20 20 21 21 22
Wind_Direction
252 255 258 260 262 265 269 271 274 276 278 282 286 288 289 290 292 292 293 294 295 295 295 293 291 288 285 283 282 282 280 279 278 277 276 275 274 274 273 272 271 270 268
256 259 261 262 264 266 268 270 272 273 275 277 280 282 284 286 287 289 290 291 292 292 292 291 289 286 284 282 282 281 279 278 277 277 277 277 275 274 273 272 271 270 269
259 261 263 264 266 267 268 269 269 271 272 274 276 278 280 281 283 284 286 288 288 288 287 287 286 284 283 282 281 281 280 278 276 276 276 275 274 274 273 273 271 270 269
260 262 265 267 268 269 269 268 269 270 271 273 274 275 276 278 278 280 282 283 283 284 284 284 283 283 281 281 280 279 279 278 277 275 275 275 274 274 274 273 272 270 269
261 265 268 267 268 269 270 270 271 273 274 276 276 276 276 277 277 278 279 278 279 281 282 281 281 281 281 280 280 278 277 277 276 275 275 274 273 273 273 273 272 271 270
264 269 269 270 271 271 272 274 275 274 275 276 278 278 278 278 277 280 279 275 276 278 279 280 280 279 278 278 278 277 277 276 276 275 274 273 273 273 273 272 272 271 271
267 269 272 273 273 274 275 277 277 277 276 276 278 279 280 280 279 280 278 276 276 276 278 280 279 278 277 276 276 276 276 276 275 275 274 274 274 273 273 272 271 271 271
270 273 278 280 278 282 282 281 282 280 279 280 282 283 282 283 283 281 279 278 278 278 278 278 277 277 277 276 275 275 275 275 275 274 274 273 273 273 272 272 272 271 271
275 283 285 286 287 288 288 285 285 283 285 285 283 282 283 285 284 283 281 280 280 278 276 276 275 275 275 276 276 276 275 275 274 274 274 274 274 274 273 273 272 272 272
281 286 287 290 290 289 290 289 289 289 290 289 286 284 284 284 284 284 283 281 279 277 276 276 276 275 275 275 276 276 275 274 274 274 274 273 273 273 273 273 273 273 273
286 289 290 291 291 291 290 290 290 291 290 289 287 286 284 284 285 285 283 282 280 278 277 276 276 276 276 276 276 275 275 274 274 274 274 274 273 273 273 273 273 273 273
289 289 290 290 290 291 291 292 291 291 290 289 287 286 285 284 284 284 283 282 281 280 279 277 277 277 277 277 276 275 275 275 274 274 274 274 274 274 274 274 274 273 273
290 289 290 290 290 291 293 292 292 291 290 288 288 287 286 285 284 284 283 282 281 280 280 279 278 277 277 277 276 276 275 275 275 275 274 274 275 275 274 275 274 274 273
291 291 291 290 290 290 291 292 292 291 290 289 288 288 287 286 285 285 284 283 281 280 280 279 279 278 278 277 277 277 277 277 276 276 276 276 276 275 275 275 274 274 273
289 289 290 290 289 290 291 291 290 289 289 289 288 288 287 286 286 285 284 283 282 281 280 280 279 279 279 279 279 279 279 279 278 277 277 277 277 277 276 275 275 274 273
287 287 287 288 288 289 290 290 291 290 289 289 289 289 288 287 286 286 284 283 282 281 280 281 281 280 281 280 280 280 280 279 279 278 278 277 277 277 277 276 275 274 273
284 285 286 287 288 288 289 290 291 291 290 290 291 291 290 289 288 286 285 284 284 283 283 282 282 282 282 282 282 282 282 281 281 280 279 279 278 278 277 277 276 275 275
284 283 284 286 287 288 290 291 292 293 293 293 293 292 292 291 290 289 288 287 286 286 285 284 283 284 284 284 284 284 284 284 283 282 281 280 279 279 278 277 277 276 276
283 284 285 287 289 291 292 294 295 296 296 296 295 295 294 293 292 291 290 289 289 288 286 285 285 285 285 285 285 285 285 286 285 284 283 282 281 280 279 278 278 277 276
285 285 288 291 293 294 296 297 298 298 298 297 297 296 296 296 295 294 293 291 290 289 288 287 286 286 286 287 287 287 287 287 287 287 287 285 283 281 280 280 279 278 277
287 289 292 294 296 297 298 300 300 300 300 299 299 299 299 299 298 298 297 295 294 293 291 291 290 289 289 289 289 289 290 290 291 291 290 289 288 286 286 284 282 280 279
290 292 294 296 298 299 301 301 302 302 302 303 303 302 302 303 303 302 301 299 298 296 295 295 294 294 294 293 293 293 293 294 294 294 294 293 292 291 291 289 288 286 284
293 295 297 299 301 302 303 304 305 306 306 306 306 306 306 306 306 306 306 306 304 303 302 300 300 300 300 298 297 298 298 299 299 298 299 299 298 297 296 294 293 293 291
296 298 299 301 303 305 306 307 308 309 310 310 310 310 311 311 312 313 313 312 311 312 312 311 311 310 308 307 306 306 306 306 306 306 305 304 303 302 301 300 300 300 299
298 300 302 304 306 307 308 309 310 311 313 314 315 317 318 320 323 324 325 326 328 328 326 325 324 323 321 319 317 317 317 316 315 314 313 312 311 310 309 309 309 308 307
301 303 306 307 309 310 311 313 315 316 319 322 324 327 331 335 338 340 343 345 346 344 342 341 339 337 335 332 330 329 327 326 325 324 322 321 320 319 319 319 319 319 318
Height
5890 5890 5890 5890 5890 5889 5889 5888 5888 5887 5886 5885 5883 5882 5881 5879 5878 5876 5875 5874 5872 5871 5870 5869 5868 5867 5867 5866 5865 5864 5863 5863 5862 5862 5861 5861 5860 5860 5860 5860 5860 5860 5860
5888 5888 5887 5887 5886 5886 5885 5885 5884 5883 5882 5881 5880 5879 5877 5876 5874 5873 5871 5870 5868 5867 5866 5865 5864 5863 5862 5861 5860 5859 5858 5857 5856 5856 5855 5855 5854 5854 5853 5853 5853 5853 5853
5885 5884 5884 5883 5883 5882 5881 5880 5879 5878 5877 5876 5875 5874 5872 5871 5870 5868 5867 5865 5864 5862 5861 5860 5859 5858 5856 5855 5854 5854 5853 5851 5850 5850 5849 5848 5847 5847 5846 5845 5845 5845 5845
5881 5880 5880 5879 5878 5877 5876 5875 5874 5873 5871 5870 5869 5868 5867 5865 5864 5863 5861 5860 5858 5857 5856 5855 5853 5852 5851 5850 5848 5847 5846 5845 5844 5843 5842 5840 5840 5839 5838 5837 5837 5836 5836
5876 5875 5874 5873 5872 5871 5870 5869 5868 5866 5865 5864 5862 5861 5860 5858 5857 5856 5855 5854 5852 5851 5849 5848 5846 5845 5844 5842 5841 5840 5838 5837 5836 5834 5833 5832 5831 5830 5829 5828 5827 5827 5826
5870 5870 5868 5867 5866 5864 5863 5862 5860 5859 5858 5856 5855 5854 5853 5851 5850 5849 5847 5846 5845 5844 5842 5840 5839 5837 5835 5834 5832 5831 5830 5828 5827 5825 5823 5822 5821 5820 5818 5817 5816 5816 5815
5864 5863 5862 5861 5859 5857 5855 5854 5853 5852 5851 5850 5849 5847 5846 5844 5843 5841 5840 5838 5837 5835 5833 5832 5830 5828 5826 5825 5823 5821 5820 5818 5816 5814 5813 5811 5810 5808 5807 5805 5804 5803 5802
5857 5857 5856 5854 5852 5850 5849 5849 5847 5844 5844 5842 5840 5839 5838 5837 5835 5833 5832 5829 5828 5826 5824 5822 5820 5818 5816 5814 5812 5811 5809 5807 5804 5802 5800 5798 5797 5795 5793 5792 5791 5789 5788
5851 5850 5849 5847 5845 5844 5842 5841 5839 5837 5836 5834 5832 5831 5830 5828 5826 5825 5823 5820 5818 5816 5814 5811 5809 5807 5804 5802 5800 5798 5796 5793 5791 5789 5786 5784 5782 5780 5778 5777 5775 5774 5772
5843 5842 5841 5840 5838 5836 5834 5832 5831 5829 5827 5825 5823 5822 5820 5819 5816 5814 5812 5810 5807 5805 5802 5800 5797 5794 5791 5788 5785 5784 5781 5778 5776 5773 5770 5768 5766 5764 5762 5760 5758 5756 5755
5836 5835 5834 5833 5831 5828 5826 5825 5822 5820 5818 5816 5815 5813 5811 5808 5806 5803 5800 5798 5795 5792 5790 5786 5783 5780 5776 5773 5770 5768 5765 5762 5759 5756 5753 5750 5748 5745 5743 5741 5740 5738 5736
5828 5827 5825 5823 5822 5820 5818 5816 5814 5812 5809 5807 5805 5803 5800 5797 5794 5791 5788 5785 5782 5778 5775 5771 5767 5763 5760 5756 5753 5751 5747 5744 5740 5737 5734 5731 5728 5726 5723 5721 5720 5718 5716
5820 5819 5817 5814 5813 5811 5808 5807 5804 5802 5799 5797 5794 5791 5788 5785 5782 5778 5775 5771 5767 5762 5758 5754 5750 5746 5742 5738 5734 5732 5727 5724 5720 5716 5713 5710 5707 5705 5703 5701 5699 5697 5696
5812 5810 5808 5805 5803 5801 5799 5796 5794 5791 5788 5785 5782 5779 5775 5772 5768 5763 5759 5755 5750 5745 5740 5736 5731 5726 5722 5718 5714 5711 5706 5703 5699 5695 5692 5689 5686 5684 5681 5680 5678 5677 5675
5803 5800 5798 5796 5793 5791 5788 5785 5782 5779 5776 5773 5769 5766 5762 5757 5753 5748 5743 5737 5733 5727 5722 5715 5712 5706 5702 5697 5694 5690 5686 5682 5679 5675 5671 5668 5666 5663 5661 5659 5658 5656 5654
5793 5790 5788 5785 5783 5780 5777 5773 5770 5766 5763 5759 5755 5751 5746 5741 5736 5730 5725 5719 5713 5707 5702 5696 5691 5687 5682 5678 5674 5671 5666 5663 5659 5656 5652 5649 5647 5644 5642 5640 5638 5636 5635
5783 5780 5778 5775 5772 5768 5765 5761 5757 5753 5749 5745 5740 5735 5730 5724 5718 5712 5706 5700 5694 5688 5683 5677 5672 5668 5664 5660 5656 5652 5648 5645 5641 5638 5635 5632 5629 5627 5625 5622 5620 5618 5616
5773 5769 5767 5764 5760 5756 5752 5748 5744 5739 5735 5730 5724 5718 5713 5706 5700 5693 5687 5681 5675 5670 5665 5660 5655 5651 5648 5644 5640 5636 5632 5629 5625 5622 5620 5616 5614 5611 5609 5607 5605 5603 5601
5762 5759 5756 5752 5748 5744 5740 5735 5730 5725 5720 5714 5708 5701 5695 5689 5682 5676 5670 5664 5659 5654 5649 5644 5640 5636 5633 5629 5626 5623 5619 5616 5612 5609 5606 5604 5601 5598 5596 5594 5592 5589 5587
5751 5748 5744 5741 5736 5732 5727 5722 5717 5711 5705 5698 5692 5685 5679 5672 5666 5660 5654 5649 5644 5639 5635 5631 5627 5624 5621 5617 5614 5611 5608 5605 5601 5598 5595 5592 5590 5587 5585 5582 5580 5578 5575
5741 5737 5733 5729 5725 5720 5715 5709 5703 5697 5691 5684 5677 5671 5665 5658 5652 5646 5641 5636 5631 5626 5623 5619 5616 5613 5610 5607 5604 5601 5598 5595 5592 5588 5586 5582 5580 5577 5574 5572 5569 5567 5564
5730 5727 5723 5718 5714 5709 5703 5698 5691 5685 5678 5671 5665 5659 5653 5647 5641 5636 5631 5626 5621 5617 5614 5610 5607 5604 5601 5598 5595 5592 5590 5587 5584 5581 5578 5574 5571 5568 5565 5562 5559 5556 5553
5721 5717 5713 5708 5703 5698 5693 5687 5680 5674 5667 5661 5655 5649 5643 5638 5632 5627 5623 5619 5615 5611 5607 5604 5601 5598 5595 5592 5589 5587 5583 5580 5577 5574 5571 5567 5564 5561 5557 5554 5551 5547 5543
5711 5707 5703 5699 5694 5689 5683 5677 5671 5665 5659 5653 5647 5641 5636 5631 5626 5621 5617 5614 5610 5606 5603 5600 5597 5593 5590 5587 5584 5582 5578 5575 5571 5568 5565 5562 5558 5554 5551 5547 5543 5539 5535
5702 5699 5694 5690 5685 5680 5674 5669 5663 5657 5652 5646 5640 5635 5631 5626 5622 5617 5614 5610 5607 5604 5600 5597 5594 5591 5587 5584 5581 5578 5574 5571 5568 5564 5560 5557 5553 5549 5545 5541 5537 5533 5528
5694 5690 5686 5682 5677 5672 5667 5661 5656 5651 5646 5641 5636 5632 5627 5623 5619 5616 5612 5609 5605 5602 5599 5596 5592 5589 5585 5582 5578 5575 5571 5568 5564 5561 5556 5552 5548 5544 5540 5536 5532 5527 5522